Location: Devore Heights
(34.2372°N, 117.4156°W)
Time: 20:05:44
(UTC+00:00)

S-56A Canister/Altair - Pass Details

Date: 16 September 2024
Orbit: 636 x 2487 km, 38.9° (Epoch: 14 October)

Event Time Altitude Azimuth Distance (km) Brightness Sun altitude
Rises 05:19:54 0° 286° (WNW) 3,735 11.8 -40.0°
Reaches altitude 10° 05:22:10 10° 289° (WNW) 2,973 11.1 -40.4°
Enters shadow 05:27:35 55° 310° (NW) 1,606 9.2 -41.2°
Maximum altitude 05:29:38 73° 14° (NNE) 1,528 - -41.5°
Drops below altitude 10° 05:41:11 10° 99° (E) 4,453 - -43.3°
Sets 05:45:20 0° 101° (E) 5,692 - -43.9°
